FW8756 Weather Reports


Display with metric or nautical units.
time (UTC)temp
F
wind
direction
speed
MPH
gust
MPH
rain 1hr
in
rain 24hr
in
rain mn
in
humidity
%
barometer
mb
20260504025709 68 154 0.0 0.0 0.00 0.00 0.00 63 1016.9
20260504025206 68 115 0.0 0.0 0.00 0.00 0.00 63 1016.8
20260504024703 68 164 0.0 0.0 0.00 0.00 0.00 64 1016.8
20260504024159 68 154 0.0 0.0 0.00 0.00 0.00 63 1016.6
20260504023656 69 149 0.0 0.0 0.00 0.00 0.00 62 1016.8
20260504023152 69 156 0.0 0.0 0.00 0.00 0.00 62 1016.8
20260504022648 69 154 0.0 0.0 0.00 0.00 0.00 61 1016.8
20260504022144 69 152 0.0 0.0 0.00 0.00 0.00 61 1016.8
20260504021643 69 133 0.0 0.0 0.00 0.00 0.00 61 1016.5
20260504021139 70 151 0.0 0.0 0.00 0.00 0.00 60 1016.5
20260504020636 70 150 0.0 0.0 0.00 0.00 0.00 59 1016.6
20260504020132 70 155 0.0 0.0 0.00 0.00 0.00 59 1016.5
20260504015629 71 147 0.0 0.0 0.00 0.00 0.00 58 1016.3
20260504015125 71 161 0.0 0.0 0.00 0.00 0.00 58 1016.4
20260504014621 71 153 0.0 0.0 0.00 0.00 0.00 58 1016.3
20260504014118 71 150 0.0 0.0 0.00 0.00 0.00 58 1016.2
20260504013616 71 145 0.0 0.0 0.00 0.00 0.00 57 1016.3
20260504013113 72 147 0.0 0.0 0.00 0.00 0.00 55 1016.1
20260504012610 72 152 0.0 0.0 0.00 0.00 0.00 54 1016.2
20260504012108 72 154 1.0 1.0 0.00 0.00 0.00 55 1016.2
20260504011604 72 162 0.0 0.0 0.00 0.00 0.00 54 1016.1
20260504011101 72 171 0.0 0.0 0.00 0.00 0.00 52 1016.0
20260504010556 73 155 0.0 0.0 0.00 0.00 0.00 53 1016.1
20260504010053 73 153 0.0 0.0 0.00 0.00 0.00 53 1016.0
20260504005549 73 153 0.0 0.0 0.00 0.00 0.00 52 1015.9
20260504005047 74 158 0.0 0.0 0.00 0.00 0.00 51 1016.2
20260504004544 74 162 0.0 0.0 0.00 0.00 0.00 50 1016.0
20260504004041 74 155 0.0 0.0 0.00 0.00 0.00 49 1016.0
20260504003537 75 150 0.0 0.0 0.00 0.00 0.00 49 1016.1
20260504003034 75 164 0.0 1.0 0.00 0.00 0.00 47 1016.4
20260504002531 75 130 0.0 1.0 0.00 0.00 0.00 47 1016.2
20260504002029 76 156 0.0 0.0 0.00 0.00 0.00 46 1016.2
20260504001526 76 160 1.0 2.0 0.00 0.00 0.00 47 1016.2
20260504001022 76 139 0.0 0.0 0.00 0.00 0.00 47 1016.3
20260504000520 76 163 0.0 0.0 0.00 0.00 0.00 48 1016.5
20260504000017 77 155 0.0 0.0 0.00 0.00 0.00 46 1016.5
20260503235515 77 157 0.0 0.0 0.00 0.00 0.00 46 1016.4
20260503235012 76 158 0.0 0.0 0.00 0.00 0.00 47 1016.2
20260503234509 77 209 0.0 0.0 0.00 0.00 0.00 47 1016.5
20260503234008 77 156 0.0 0.0 0.00 0.00 0.00 47 1016.4
20260503233503 78 163 0.0 0.0 0.00 0.00 0.00 46 1016.3
20260503232959 78 159 0.0 0.0 0.00 0.00 0.00 46 1016.4
20260503232457 78 137 0.0 0.0 0.00 0.00 0.00 45 1016.5
20260503231955 78 120 0.0 0.0 0.00 0.00 0.00 46 1016.5
20260503231452 78 169 1.0 3.0 0.00 0.00 0.00 44 1016.3
20260503230948 78 125 0.0 0.0 0.00 0.00 0.00 44 1016.5
20260503230445 77 146 1.0 1.0 0.00 0.00 0.00 43 1016.6
20260503225943 77 193 0.0 0.0 0.00 0.00 0.00 44 1016.4
20260503225439 77 159 0.0 0.0 0.00 0.00 0.00 48 1016.8
20260503224934 77 163 0.0 0.0 0.00 0.00 0.00 51 1016.7
20260503224432 77 155 0.0 0.0 0.00 0.00 0.00 48 1016.7
20260503223930 77 153 0.0 0.0 0.00 0.00 0.00 49 1016.8
20260503223427 78 125 0.0 0.0 0.00 0.00 0.00 45 1016.8
20260503222922 78 157 0.0 0.0 0.00 0.00 0.00 43 1017.0
20260503222421 79 166 0.0 0.0 0.00 0.00 0.00 42 1016.9
20260503221919 80 137 2.0 2.0 0.00 0.00 0.00 41 1017.1
20260503221417 78 160 0.0 0.0 0.00 0.00 0.00 43 1017.1
20260503220913 79 148 0.0 0.0 0.00 0.00 0.00 44 1017.3
20260503220410 80 182 0.0 0.0 0.00 0.00 0.00 45 1017.1
20260503215907 81 165 0.0 1.0 0.00 0.00 0.00 41 1017.2
20260503215404 81 201 2.0 3.0 0.00 0.00 0.00 39 1016.9
20260503214902 83 148 0.0 0.0 0.00 0.00 0.00 41 1017.1
20260503214359 82 211 0.0 1.0 0.00 0.00 0.00 38 1017.3
20260503213856 81 181 1.0 3.0 0.00 0.00 0.00 40 1017.3
20260503213354 82 221 2.0 2.0 0.00 0.00 0.00 38 1017.2
20260503212850 83 252 0.0 1.0 0.00 0.00 0.00 39 1017.8
20260503212348 82 199 1.0 2.0 0.00 0.00 0.00 39 1017.8
20260503211845 82 186 1.0 1.0 0.00 0.00 0.00 38 1017.8
20260503211342 84 160 0.0 0.0 0.00 0.00 0.00 39 1017.9
20260503210837 83 162 0.0 0.0 0.00 0.00 0.00 38 1017.8
20260503210335 82 160 0.0 0.0 0.00 0.00 0.00 39 1017.8
20260503205829 80 168 1.0 2.0 0.00 0.00 0.00 42 1017.9
20260503205326 82 145 0.0 0.0 0.00 0.00 0.00 40 1018.0
20260503204823 82 148 0.0 0.0 0.00 0.00 0.00 39 1018.3
20260503204321 83 192 0.0 0.0 0.00 0.00 0.00 40 1018.2
20260503203818 81 164 0.0 0.0 0.00 0.00 0.00 40 1018.4
20260503203315 80 189 0.0 0.0 0.00 0.00 0.00 42 1018.3
20260503202812 81 201 1.0 2.0 0.00 0.00 0.00 39 1018.6
20260503202310 80 193 0.0 1.0 0.00 0.00 0.00 41 1018.7
20260503201808 81 161 0.0 0.0 0.00 0.00 0.00 41 1018.7
20260503201304 84 225 1.0 1.0 0.00 0.00 0.00 36 1018.8
20260503200802 81 165 0.0 0.0 0.00 0.00 0.00 39 1019.0
20260503200257 82 162 0.0 0.0 0.00 0.00 0.00 40 1019.0
20260503195755 81 182 1.0 2.0 0.00 0.00 0.00 39 1019.2
20260503195251 83 185 0.0 0.0 0.00 0.00 0.00 41 1018.9
20260503194749 81 148 0.0 0.0 0.00 0.00 0.00 42 1019.2
20260503194245 81 222 0.0 0.0 0.00 0.00 0.00 43 1019.4
20260503193741 81 195 1.0 2.0 0.00 0.00 0.00 41 1019.4
20260503193237 82 247 5.0 6.0 0.00 0.00 0.00 38 1019.4
20260503192733 82 254 5.0 7.0 0.00 0.00 0.00 39 1019.4
20260503192228 84 174 2.0 2.0 0.00 0.00 0.00 40 1019.7
20260503191725 82 253 3.0 3.0 0.00 0.00 0.00 41 1019.8
20260503191222 79 151 0.0 0.0 0.00 0.00 0.00 42 1019.9
20260503190719 82 149 0.0 0.0 0.00 0.00 0.00 41 1020.2
20260503190216 80 299 7.0 8.0 0.00 0.00 0.00 38 1019.9
20260503185713 81 184 0.0 0.0 0.00 0.00 0.00 41 1020.1
20260503185208 80 253 2.0 3.0 0.00 0.00 0.00 41 1020.1
20260503184703 82 161 0.0 0.0 0.00 0.00 0.00 40 1020.0
20260503184200 80 118 0.0 0.0 0.00 0.00 0.00 42 1020.3
20260503183656 81 209 1.0 2.0 0.00 0.00 0.00 41 1020.3
20260503183154 81 132 4.0 6.0 0.00 0.00 0.00 43 1020.4
20260503182652 80 185 1.0 2.0 0.00 0.00 0.00 40 1020.5
20260503182150 81 169 0.0 0.0 0.00 0.00 0.00 41 1020.6
20260503181646 81 163 3.0 3.0 0.00 0.00 0.00 43 1020.5
20260503181143 80 169 0.0 0.0 0.00 0.00 0.00 44 1020.7
20260503180640 77 140 0.0 0.0 0.00 0.00 0.00 48 1021.1
20260503180138 79 122 3.0 3.0 0.00 0.00 0.00 44 1021.1
20260503175635 78 178 0.0 0.0 0.00 0.00 0.00 46 1021.0
20260503175132 77 165 0.0 0.0 0.00 0.00 0.00 46 1021.1
20260503174628 79 187 1.0 1.0 0.00 0.00 0.00 45 1021.2
20260503174126 79 144 0.0 0.0 0.00 0.00 0.00 46 1021.5
20260503173621 81 144 0.0 0.0 0.00 0.00 0.00 45 1021.4
20260503173117 80 158 0.0 1.0 0.00 0.00 0.00 45 1021.5
20260503172614 80 190 0.0 0.0 0.00 0.00 0.00 45 1021.6
20260503172112 81 180 2.0 3.0 0.00 0.00 0.00 44 1021.7
20260503171609 81 186 1.0 2.0 0.00 0.00 0.00 45 1021.8
20260503171106 80 220 0.0 0.0 0.00 0.00 0.00 45 1021.6
20260503170602 80 193 1.0 2.0 0.00 0.00 0.00 46 1021.9
20260503150954 73 186 0.0 0.0 0.00 0.00 0.00 60 1022.0
20260503150451 73 174 1.0 1.0 0.00 0.00 0.00 61 1021.8
20260503131344 61 153 0.0 0.0 0.00 0.00 0.00 93 1021.4
20260503130841 60 153 0.0 0.0 0.00 0.00 0.00 93 1021.2
20260503130338 59 142 0.0 0.0 0.00 0.00 0.00 93 1021.0
20260503110732 55 146 0.0 0.0 0.00 0.00 0.00 94 1020.3
20260503110230 55 140 0.0 0.0 0.00 0.00 0.00 94 1020.1
20260503100156 56 149 0.0 0.0 0.00 0.00 0.00 93 1019.9
20260503090115 55 147 0.0 0.0 0.00 0.00 0.00 93 1019.7
20260503081550 56 146 0.0 0.0 0.00 0.00 0.00 93 1019.9
20260503081048 56 148 0.0 0.0 0.00 0.00 0.00 92 1019.5
20260503080544 56 144 0.0 0.0 0.00 0.00 0.00 92 1019.9
20260503072518 56 144 0.0 0.0 0.00 0.00 0.00 92 1019.9
20260503072015 57 150 0.0 0.0 0.00 0.00 0.00 92 1019.9
20260503071512 56 145 0.0 0.0 0.00 0.00 0.00 91 1020.1
20260503071008 57 141 0.0 0.0 0.00 0.00 0.00 91 1020.1
20260503070505 57 152 0.0 0.0 0.00 0.00 0.00 91 1020.1
20260503054929 58 153 0.0 0.0 0.00 0.00 0.00 89 1020.1
20260503054425 58 153 0.0 0.0 0.00 0.00 0.00 89 1020.3
20260503053923 58 148 0.0 0.0 0.00 0.00 0.00 89 1020.3
20260503053421 58 146 0.0 0.0 0.00 0.00 0.00 89 1020.1
20260503052916 58 145 0.0 0.0 0.00 0.00 0.00 89 1019.7
20260503052414 58 140 0.0 0.0 0.00 0.00 0.00 89 1019.9
20260503051910 58 140 0.0 0.0 0.00 0.00 0.00 88 1019.8
20260503051406 58 141 0.0 0.0 0.00 0.00 0.00 88 1019.9
20260503050904 59 153 0.0 0.0 0.00 0.00 0.00 88 1020.0
20260503050359 59 154 0.0 0.0 0.00 0.00 0.00 88 1019.9
20260503045857 59 147 0.0 0.0 0.00 0.00 0.00 87 1019.9
20260503045354 59 144 0.0 0.0 0.00 0.00 0.00 87 1019.9
20260503044851 59 148 0.0 0.0 0.00 0.00 0.00 87 1019.9
20260503044348 59 152 0.0 0.0 0.00 0.00 0.00 87 1019.7
20260503043845 59 153 0.0 0.0 0.00 0.00 0.00 86 1019.8
20260503043342 59 159 0.0 0.0 0.00 0.00 0.00 86 1019.8
20260503042838 59 152 0.0 0.0 0.00 0.00 0.00 86 1019.6
20260503042335 59 148 0.0 0.0 0.00 0.00 0.00 85 1019.5
20260503041831 60 150 0.0 0.0 0.00 0.00 0.00 85 1019.7
20260503041328 60 152 0.0 0.0 0.00 0.00 0.00 85 1019.7
20260503040826 60 153 0.0 0.0 0.00 0.00 0.00 85 1019.6
20260503040324 60 138 0.0 0.0 0.00 0.00 0.00 84 1019.7
20260503035820 60 153 0.0 0.0 0.00 0.00 0.00 84 1019.6
20260503035317 60 153 0.0 0.0 0.00 0.00 0.00 83 1019.8
20260503034815 60 151 0.0 0.0 0.00 0.00 0.00 83 1019.6
20260503034312 60 139 0.0 0.0 0.00 0.00 0.00 83 1019.3
20260503033809 60 147 0.0 0.0 0.00 0.00 0.00 83 1019.3
20260503033306 61 153 0.0 0.0 0.00 0.00 0.00 83 1019.4
20260503032804 61 152 0.0 0.0 0.00 0.00 0.00 82 1019.2
20260503032304 61 138 0.0 0.0 0.00 0.00 0.00 82 1019.4
20260503031800 61 152 0.0 0.0 0.00 0.00 0.00 81 1019.3
20260503031258 61 154 0.0 0.0 0.00 0.00 0.00 81 1019.2
20260503030754 62 136 0.0 0.0 0.00 0.00 0.00 81 1019.3
20260503030250 61 151 0.0 0.0 0.00 0.00 0.00 81 1019.2